{"data":{"norad_id":53793,"intl_designator":"2022-111W","name":"STARLINK-4728","alt_names":[],"object_type":"PAYLOAD","status":"ACTIVE","operator":null,"country":"US","launch_date":"2022-09-11","launch_site_code":"AFETR","launch_vehicle":null,"mission":null,"orbit_class":"UNKNOWN","rcs_meters":null,"size_class":null,"mass_kg":null,"dimensions":null,"purposes":["comms"],"wikipedia_slug":null,"has_3d_model":false,"image_url":null,"decayed_at":null,"tle_current":{"epoch":"2026-09-20T06:19:07.706496Z","epoch_age_seconds":105170,"freshness":"FRESH","line1":"1 53793U 22111W   26263.26328364  .00000466  00000+0  26781-4 0  9990","line2":"2 53793  53.1595 107.1232 0001613  88.7177 271.4009 15.31703478223247","mean_motion":15.31703478,"eccentricity":0.0001613,"inclination_deg":53.1595,"raan_deg":107.1232,"arg_perigee_deg":88.7177,"mean_anomaly_deg":271.4009,"bstar":2.6781e-5,"rev_number":22324,"period_min":94.012974487742,"perigee_km":469.62490532123,"apogee_km":471.83434969526,"semimajor_km":6848.8666275082,"source":"CELESTRAK","updated_at":"2026-09-21T09:00:32.994389Z"}}}